Погода в Мирополе

Украина / Житомирская область     50°06′35″N   27°41′48″E
темп.,
°C
ветер,
м/с
пор.,
м/с
влажн.,
%
обл.,
%
осадки,
мм/ч
давл.,
гПа
погр.,
м
8 августа, пн
пн800:00+15с269868 0.3 1021214
03:00+15с35979 0.5 1021155
06:00+14ссв379541 0.0 1022182
09:00+17св467296 0.0 1022409
12:00+22св445051 0.0 1022992
15:00+25св44435 0.0 10211448
18:00+25ссв444212 0.0 10201553
21:00+19с485964 0.0 1021128
9 августа, вт
вт900:00+18св3956100 0.0 1021227
03:00+18ссв3856100 0.0 1021264
06:00+17св4962100 0.0 1022311
09:00+16ссв3674100 0.2 1023232
12:00+16ссз4676100 0.4 1024359
15:00+14ссв3794100 3.0 1024337
18:00+15ссв2590100 0.8 1023229
21:00+15с2290100 1.6 102357
10 августа, ср
ср1000:00+13ссз359245 0.0 102278
03:00+13ссз359398 0.0 102192
06:00+14ююв1189100 0.1 102216
09:00+16сз2280100 0.1 1022174
12:00+19с466191 0.0 1022745
15:00+21всв6650100 0.0 10211246
18:00+17всв1368100 0.0 102195
21:00+16ссв2370100 0.0 102149
11 августа, чт
чт1100:00+15с3376100 0.0 102151
03:00+15ссв3879100 0.1 1020248
06:00+14с1295100 2.3 102076
09:00+14с4797100 8.1 1020257
12:00+20ссв357771 1.0 1020752
15:00+26св345432 1.1 10191090
18:00+26всв665510 0.0 10181367
21:00+20ссв467119 0.1 101981
12 августа, пт
пт1200:00+18св41092100 2.5 1020216
03:00+17св379564 2.5 1020141
06:00+16св410965 0.5 1021221
09:00+20всв51083100 1.8 1021377
12:00+26всв5755100 0.3 1020744
15:00+29всв784097 0.3 10191974
18:00+27вюв594995 0.0 1019954
21:00+22вюв2360100 0.0 101940